TimeEDT,TemperatureF,Dew PointF,Humidity,Sea Level PressureIn,VisibilityMPH,Wind Direction,Wind SpeedMPH,Gust SpeedMPH,PrecipitationIn,Events,Conditions,WindDirDegrees,DateUTC
12:51 AM,71.1,55.9,59,30.25,10.0,West,4.6,-,N/A,,Mostly Cloudy,260,2013-08-18 04:51:00
1:51 AM,69.1,55.9,63,30.24,10.0,Calm,Calm,-,N/A,,Mostly Cloudy,0,2013-08-18 05:51:00
2:51 AM,69.1,57.0,65,30.24,10.0,Calm,Calm,-,N/A,,Mostly Cloudy,0,2013-08-18 06:51:00
3:51 AM,68.0,57.0,68,30.24,10.0,NE,5.8,-,N/A,,Mostly Cloudy,40,2013-08-18 07:51:00
4:51 AM,66.9,57.9,73,30.24,10.0,NNE,4.6,-,N/A,,Overcast,30,2013-08-18 08:51:00
5:51 AM,66.9,57.9,73,30.24,10.0,NE,3.5,-,N/A,,Overcast,40,2013-08-18 09:51:00
6:51 AM,66.9,57.9,73,30.25,10.0,NNE,5.8,-,N/A,,Overcast,20,2013-08-18 10:51:00
7:51 AM,69.1,59.0,70,30.26,10.0,NNE,4.6,-,N/A,,Overcast,30,2013-08-18 11:51:00
8:51 AM,71.1,60.1,68,30.25,10.0,NNE,4.6,-,0.00,,Overcast,30,2013-08-18 12:51:00
9:51 AM,73.0,60.1,64,30.26,10.0,ESE,3.5,-,N/A,,Overcast,110,2013-08-18 13:51:00
10:51 AM,75.0,57.0,53,30.25,10.0,ESE,5.8,-,N/A,,Overcast,110,2013-08-18 14:51:00
11:51 AM,75.0,55.0,50,30.25,10.0,East,3.5,-,N/A,,Overcast,100,2013-08-18 15:51:00
12:51 PM,75.9,55.0,48,30.23,10.0,East,5.8,-,0.00,Rain,Light Rain,100,2013-08-18 16:51:00
1:51 PM,77.0,54.0,45,30.21,10.0,Variable,3.5,-,0.00,,Overcast,0,2013-08-18 17:51:00
2:51 PM,75.9,55.0,48,30.18,10.0,NNE,10.4,-,0.00,,Overcast,30,2013-08-18 18:51:00
3:51 PM,77.0,55.0,47,30.16,10.0,NE,9.2,-,0.00,,Overcast,40,2013-08-18 19:51:00
4:51 PM,75.9,51.1,42,30.14,10.0,NNE,8.1,-,0.00,,Overcast,30,2013-08-18 20:51:00
5:51 PM,75.0,54.0,48,30.14,10.0,NE,8.1,-,0.00,,Overcast,50,2013-08-18 21:51:00
6:51 PM,73.9,52.0,46,30.14,10.0,NNE,5.8,-,0.00,,Overcast,30,2013-08-18 22:51:00
7:51 PM,72.0,57.9,61,30.14,10.0,South,5.8,-,N/A,,Overcast,170,2013-08-18 23:51:00
8:51 PM,71.1,59.0,66,30.14,10.0,SSW,4.6,-,N/A,,Mostly Cloudy,200,2013-08-19 00:51:00
9:51 PM,70.0,57.9,65,30.14,10.0,South,4.6,-,N/A,,Mostly Cloudy,180,2013-08-19 01:51:00
10:51 PM,70.0,60.1,71,30.15,10.0,South,3.5,-,N/A,,Overcast,180,2013-08-19 02:51:00
11:51 PM,68.0,59.0,73,30.14,10.0,SSW,3.5,-,N/A,,Overcast,210,2013-08-19 03:51:00